Vertical_Velocity
1 4 0 -2 3 4 -4 9 -5 -10 -15 6 -2 -15 -9 -5 -4 0 -3 2 -1 -5 -0 6 5 2 -2 -0 2 0 -2 1 1 -0 -3 1 -4 -4 7 -4 2 -0 17 10
-15 -1 -0 -8 1 0 -0 6 -11 3 -24 9 -7 7 12 -6 -6 -2 -13 0 -0 2 4 4 -2 -4 1 -1 5 -2 -1 0 -1 -2 -2 0 0 -5 4 2 -2 -1 6 11
-11 -0 1 -4 -0 3 -3 1 5 0 4 -4 1 8 -7 -4 -1 -7 -7 -6 -8 -9 -10 2 5 -3 -1 -1 -2 1 -1 0 -1 1 -2 -0 -2 1 -3 -4 -1 -1 3 10
-11 -5 -6 1 -1 -1 1 2 2 -1 2 7 2 -2 4 -1 -11 -4 -3 -2 -3 -8 -3 3 1 3 0 6 3 3 -1 -2 -1 -0 0 -0 -0 5 -0 -8 -3 -3 1 8
-2 0 -16 -3 -0 1 0 -13 0 -0 4 3 6 6 2 4 3 1 -6 5 3 0 -6 6 -1 2 5 1 2 3 2 -1 -2 -0 1 -1 -1 -4 2 -2 -4 -7 13 -0
2 0 -2 0 1 0 -2 -10 1 -2 -1 -6 0 -2 -4 -2 2 5 6 11 -7 -2 -4 2 4 -0 -4 6 4 1 3 -0 -1 -1 1 0 -1 -4 -3 4 6 -1 9 9
4 -3 -16 4 2 2 -1 -10 -5 -2 -3 -0 -2 0 -14 -3 5 5 -6 -1 1 6 -8 -1 2 -4 -0 4 3 -0 3 1 1 -0 -2 1 0 -1 -4 3 -0 -1 3 17
2 0 -11 5 5 9 3 1 2 0 -1 3 5 3 -2 1 -11 -10 -24 -21 -2 -5 -5 3 -5 4 1 3 1 2 2 2 3 1 -1 -2 3 1 -7 5 -2 2 15 16
1 -27 -0 0 -2 0 2 -0 1 2 1 1 3 1 -1 -3 -2 -0 -9 -2 2 8 -5 -1 -6 6 0 6 2 1 0 2 2 -1 2 -2 0 -8 -1 4 4 -2 14 17
7 16 8 4 2 3 1 -3 -1 0 1 -0 2 0 3 -1 5 1 -2 -5 3 12 -2 -2 4 -3 3 -0 1 2 -1 -1 -1 0 0 0 5 2 3 -5 -13 1 10 -1
-19 -0 4 2 1 -0 0 -1 -2 -5 -0 1 1 2 -1 0 2 5 -0 -4 4 3 11 -1 0 4 2 2 1 -0 5 4 0 3 -0 0 8 1 -8 -6 0 -1 7 16
-25 7 4 5 -2 -1 1 -1 3 3 -1 -1 1 2 1 -1 -1 1 -1 4 -0 6 14 9 4 -0 0 5 -4 2 3 2 -0 -4 -3 -0 -2 -0 2 5 4 6 13 5
-10 4 2 2 2 -0 1 1 1 -2 -3 0 -0 1 -3 -1 1 -3 7 0 1 0 5 17 2 10 8 -2 -0 0 2 1 -1 -1 4 -3 -4 0 -11 -6 10 11 5 11
0 2 3 5 2 1 0 -1 -1 1 -1 -3 0 0 0 -4 1 2 3 3 6 3 8 12 9 7 12 6 4 3 5 5 10 4 0 5 5 -10 -0 -23 3 3 -16 1
7 2 -1 2 1 1 2 0 1 1 -1 -3 -2 -0 0 2 1 3 -1 -0 -3 4 6 4 19 8 13 6 9 3 5 5 5 6 4 -11 -4 -13 -5 -4 -5 -2 15 0
5 4 4 6 1 2 1 1 2 2 1 -2 3 -1 -0 -2 -3 -3 -3 -0 -2 -7 -5 0 -0 3 6 12 7 4 7 5 4 -7 -16 9 12 11 11 -11 -2 -10 4 2
-1 2 2 4 5 1 -0 2 0 -0 0 -2 -0 2 -1 1 -1 3 2 1 5 1 -1 -4 -2 -1 1 -4 -5 6 7 9 6 3 -3 -7 -5 2 -5 -5 2 -2 -0 -0
1 3 -1 1 2 4 0 0 1 2 0 -0 -1 0 -2 -1 -0 -2 1 -1 -4 7 4 3 -3 -1 2 5 6 9 10 4 3 0 -2 -1 3 4 -10 -4 6 1 7 6
-2 2 -1 2 1 -1 1 1 2 -0 2 -3 -2 -1 2 -4 1 -4 -3 -0 2 -4 2 0 1 -3 1 6 7 12 9 13 2 11 14 7 5 3 -4 8 6 4 8 6
9 3 1 6 2 1 -3 -2 -1 -2 -3 -2 -3 -2 -1 -0 4 -7 -6 -7 -11 -9 -6 -3 -1 -1 -5 -1 0 -2 6 7 10 5 -1 6 7 -2 -4 8 10 13 -0 9
5 5 1 -3 2 2 0 -2 -4 -5 0 2 -2 -0 -1 -5 3 -1 0 -1 -4 -2 -6 -3 -6 -2 -2 -3 -1 0 -2 4 2 4 3 6 3 4 10 2 3 2 8 3
3 2 3 -1 4 5 2 -1 -4 -3 -0 -0 -5 -4 -1 -1 3 -7 3 -2 1 -7 -3 -5 -2 -7 -5 -4 -2 -3 -2 -0 1 3 4 6 5 3 -2 2 2 -2 -2 -1
3 5 2 3 5 6 4 -2 -4 -3 -5 -1 -2 -1 -2 -1 6 -4 3 3 -0 -7 -7 -2 -3 -3 -4 -1 -1 -4 -3 -1 -0 -2 2 5 5 3 3 1 5 3 0 0
4 -5 -5 2 1 7 5 -1 -2 -4 -3 -2 -3 -3 -7 -3 2 -3 -5 -3 -1 -4 -8 -7 -2 -2 -5 -6 -2 -0 -3 -5 -3 -1 -0 -1 5 7 9 10 12 8 6 6
8 2 1 0 3 6 3 1 -2 -1 -4 -1 -2 -5 -7 -3 -5 -4 -1 -0 -4 -6 -3 -6 -5 -1 -0 -3 -5 -2 -2 -1 -0 -5 -4 -2 0 1 4 5 4 3 3 6
4 7 4 1 1 1 2 1 -3 -0 -5 -4 -2 -6 1 -2 -3 -5 1 -3 -3 -9 -4 -3 -2 -4 -3 -2 -3 -4 -3 -1 -3 1 1 -1 -1 -0 -1 0 -2 4 1 -1
5 2 -0 5 5 1 2 1 -2 -3 0 -3 -3 -6 -2 -4 -4 -4 1 -2 -5 -5 -3 -4 -2 -2 -2 -2 -3 -3 -4 -3 -3 -1 -1 -2 -1 1 -2 0 1 -4 -1 0
Height
3093 3086 3081 3074 3071 3069 3062 3057 3052 3026 3021 3012 3005 2992 2979 2966 2954 2940 2929 2916 2901 2884 2870 2857 2844 2836 2830 2826 2821 2820 2821 2819 2819 2822 2824 2831 2844 2861 2877 2893 2909 2922 2934 2951
3078 3075 3071 3062 3061 3059 3055 3050 3036 3027 3011 3012 2999 2987 2975 2961 2946 2932 2920 2904 2888 2875 2859 2844 2833 2825 2820 2817 2813 2809 2810 2810 2809 2810 2813 2820 2834 2849 2866 2882 2900 2912 2926 2942
3075 3072 3064 3056 3054 3052 3047 3040 3032 3021 3012 3000 2990 2982 2969 2953 2944 2926 2911 2898 2881 2864 2849 2837 2825 2820 2814 2809 2804 2800 2798 2800 2798 2800 2804 2813 2826 2840 2856 2875 2892 2905 2919 2936
3078 3070 3067 3054 3049 3045 3037 3031 3021 3014 3004 2994 2983 2974 2966 2953 2937 2923 2909 2893 2875 2857 2844 2829 2821 2813 2809 2803 2798 2793 2791 2788 2788 2791 2798 2808 2820 2835 2850 2868 2884 2898 2915 2931
3086 3073 3057 3047 3043 3039 3031 3019 3014 3007 2997 2987 2977 2965 2959 2947 2938 2923 2907 2890 2871 2853 2839 2824 2818 2811 2804 2798 2791 2787 2782 2780 2780 2784 2793 2803 2817 2833 2848 2864 2880 2894 2910 2927
3084 3079 3066 3046 3043 3035 3025 3013 3008 3000 2992 2983 2975 2959 2950 2940 2930 2918 2903 2888 2867 2849 2837 2824 2816 2810 2802 2796 2788 2783 2779 2777 2778 2782 2792 2804 2817 2832 2847 2863 2878 2893 2907 2921
3078 3072 3053 3046 3040 3032 3026 3017 3005 2998 2990 2982 2973 2965 2948 2936 2926 2915 2899 2883 2866 2848 2835 2826 2817 2809 2801 2794 2788 2784 2781 2780 2781 2786 2795 2806 2818 2833 2847 2861 2875 2887 2903 2918
3072 3064 3047 3041 3034 3031 3022 3012 3004 2996 2987 2978 2969 2958 2946 2933 2922 2909 2895 2881 2866 2848 2837 2828 2819 2810 2803 2797 2793 2788 2786 2787 2790 2794 2802 2812 2822 2835 2847 2860 2874 2887 2898 2915
3068 3054 3046 3038 3030 3022 3014 3008 2999 2992 2984 2974 2965 2954 2943 2930 2918 2907 2895 2882 2868 2853 2840 2833 2822 2814 2807 2802 2798 2795 2792 2793 2797 2803 2808 2818 2826 2839 2850 2861 2875 2881 2897 2909
3048 3042 3036 3030 3023 3015 3008 3002 2996 2988 2981 2972 2962 2952 2940 2929 2915 2906 2895 2882 2870 2859 2843 2836 2826 2819 2812 2809 2805 2803 2802 2803 2804 2809 2815 2823 2834 2845 2854 2865 2875 2883 2898 2912
3031 3030 3026 3022 3014 3008 3002 2996 2990 2985 2977 2969 2960 2951 2938 2927 2916 2906 2895 2886 2874 2864 2850 2839 2832 2824 2820 2815 2814 2813 2814 2815 2816 2820 2826 2832 2840 2851 2861 2872 2881 2891 2904 2914
3023 3023 3018 3013 3007 3002 2997 2991 2985 2982 2977 2967 2958 2947 2937 2926 2916 2906 2895 2887 2879 2867 2859 2845 2836 2831 2828 2823 2821 2819 2820 2822 2824 2826 2830 2837 2846 2853 2862 2874 2884 2893 2902 2911
3016 3014 3009 3005 3001 2996 2992 2986 2980 2975 2969 2963 2954 2946 2936 2927 2915 2907 2900 2889 2879 2870 2863 2852 2842 2836 2832 2831 2829 2826 2824 2826 2829 2832 2837 2845 2852 2859 2868 2876 2883 2892 2901 2911
3008 3004 3000 2999 2994 2990 2986 2981 2976 2971 2966 2959 2951 2944 2936 2926 2918 2908 2899 2888 2879 2873 2869 2860 2848 2843 2838 2835 2834 2832 2832 2831 2835 2840 2844 2848 2856 2864 2869 2881 2885 2892 2903 2910
2999 2995 2993 2991 2987 2984 2981 2976 2972 2968 2964 2957 2950 2943 2934 2925 2916 2907 2898 2891 2882 2876 2870 2863 2856 2849 2844 2840 2839 2837 2836 2837 2838 2843 2850 2857 2863 2869 2876 2882 2887 2896 2903 2910
2989 2987 2984 2983 2979 2977 2976 2973 2969 2965 2960 2954 2948 2942 2933 2923 2914 2908 2900 2892 2881 2873 2868 2864 2860 2854 2852 2846 2842 2843 2843 2842 2843 2847 2854 2860 2865 2870 2875 2884 2890 2897 2905 2914
2979 2979 2977 2975 2972 2971 2971 2968 2965 2962 2957 2952 2945 2938 2929 2922 2916 2910 2903 2894 2884 2877 2871 2867 2863 2858 2854 2855 2847 2846 2846 2847 2849 2853 2857 2861 2865 2870 2876 2883 2890 2897 2903 2910
2972 2970 2967 2966 2966 2966 2965 2963 2961 2958 2954 2948 2942 2935 2926 2920 2913 2906 2900 2895 2889 2883 2877 2870 2866 2863 2858 2855 2854 2850 2851 2849 2851 2856 2860 2864 2868 2872 2877 2884 2890 2896 2902 2909
2964 2962 2959 2958 2959 2960 2959 2958 2956 2953 2949 2943 2938 2932 2925 2917 2912 2905 2900 2894 2889 2884 2877 2871 2866 2865 2862 2858 2857 2856 2854 2854 2856 2857 2861 2864 2870 2874 2879 2883 2887 2895 2899 2904
2955 2953 2950 2950 2952 2952 2952 2953 2951 2949 2945 2940 2935 2929 2923 2917 2912 2906 2899 2892 2886 2881 2876 2872 2868 2864 2863 2860 2857 2857 2856 2857 2857 2858 2862 2865 2868 2872 2877 2881 2884 2891 2898 2903
2948 2945 2944 2945 2946 2946 2946 2947 2946 2946 2942 2937 2931 2926 2922 2916 2910 2905 2899 2895 2890 2883 2878 2873 2869 2865 2861 2861 2859 2858 2858 2858 2860 2861 2862 2864 2869 2872 2874 2879 2883 2888 2892 2896
2938 2937 2939 2940 2940 2941 2941 2942 2942 2940 2936 2932 2928 2924 2920 2915 2909 2903 2898 2893 2889 2884 2879 2874 2869 2865 2863 2860 2858 2857 2858 2858 2859 2860 2862 2863 2865 2868 2872 2876 2879 2883 2885 2889
2927 2930 2932 2934 2936 2937 2937 2937 2937 2935 2932 2929 2925 2921 2918 2914 2909 2905 2901 2896 2890 2885 2881 2875 2871 2866 2863 2861 2858 2856 2856 2856 2857 2858 2859 2861 2863 2866 2869 2872 2875 2879 2882 2886
2919 2923 2928 2931 2932 2932 2932 2932 2932 2931 2929 2925 2922 2918 2914 2909 2906 2901 2898 2895 2892 2887 2883 2878 2872 2868 2864 2861 2858 2856 2853 2853 2854 2856 2857 2859 2860 2863 2866 2868 2870 2873 2877 2881
2915 2919 2923 2925 2928 2929 2928 2928 2928 2926 2924 2921 2918 2916 2913 2910 2907 2903 2900 2896 2892 2889 2885 2880 2875 2870 2866 2862 2859 2856 2854 2852 2851 2852 2854 2856 2858 2860 2862 2864 2867 2871 2874 2878
2913 2916 2918 2920 2922 2923 2924 2924 2923 2922 2919 2917 2915 2913 2910 2907 2905 2902 2900 2897 2893 2889 2886 2882 2877 2872 2867 2863 2859 2856 2853 2851 2850 2849 2849 2851 2854 2856 2859 2862 2865 2869 2872 2875
2909 2912 2914 2917 2918 2919 2919 2919 2919 2918 2916 2914 2912 2910 2908 2906 2904 2901 2899 2896 2893 2889 2887 2882 2878 2873 2869 2864 2861 2857 2854 2852 2850 2849 2848 2848 2849 2850 2853 2856 2860 2863 2868 2870